Location: Ca�n Batista
(41.4099°N, 1.7752°E)
Time: 15:11:33
(UTC+00:00)

Cosmos 2360 Rocket - Pass Details

Date: 03 March 2021
Orbit: 833 x 846 km, 71.0° (Epoch: 21 April)

Event Time Altitude Azimuth Distance (km) Brightness Sun altitude
Rises 20:19:47 0° 242° (WSW) 3,380 5.9 -29.3°
Reaches altitude 10° 20:22:45 10° 257° (WSW) 2,452 5.3 -29.8°
Maximum altitude 20:27:05 22° 308° (NW) 1,743 4.4 -30.6°
Drops below altitude 10° 20:31:28 10° 359° (N) 2,470 4.8 -31.3°
Sets 20:34:29 0° 14° (NNE) 3,410 5.4 -31.9°
